Wind_Speed
7 7 8 9 9 10 9 9 9 10 9 8 8 9 8 7 5 3 4 5 6 6 6 7 8 9 10 11 12 14 15 16 16 16 16 15 14 12 10 9 7 5 4 2 1 1 1 2 3
6 6 6 7 8 8 7 7 8 9 8 8 8 8 8 7 5 4 3 4 4 5 4 4 5 6 7 9 10 12 13 14 14 15 15 15 14 13 12 11 9 8 6 4 2 2 0 1 3
5 6 6 8 8 7 6 6 6 7 7 7 7 7 7 7 6 4 3 2 3 3 3 3 3 4 5 6 7 9 10 11 12 13 13 14 14 13 13 12 11 10 9 7 4 3 1 1 2
4 4 6 8 7 6 5 5 5 6 6 6 7 7 7 7 6 4 2 1 1 2 3 3 2 2 2 3 5 6 8 9 10 11 11 12 12 13 13 13 12 12 10 9 6 4 2 1 2
3 4 5 6 6 5 3 3 4 5 6 6 7 7 7 7 6 4 2 1 1 1 2 2 2 2 2 1 2 4 5 7 7 8 9 9 10 11 11 12 12 12 12 10 8 6 4 2 1
5 4 4 4 5 4 3 3 3 4 5 6 6 7 6 6 6 4 3 2 2 2 3 3 3 3 3 2 0 1 2 4 5 6 7 7 8 9 9 10 11 12 12 11 9 7 5 3 1
7 6 5 4 5 5 4 3 1 2 3 4 5 6 5 5 5 5 4 3 3 4 4 4 4 4 4 3 2 1 1 2 3 4 5 6 6 7 8 8 9 10 10 11 10 8 7 5 3
8 8 8 8 7 7 6 5 4 3 3 4 5 6 6 5 5 5 5 4 4 5 6 6 6 6 6 6 5 4 4 4 4 5 5 5 5 6 7 7 7 8 8 9 9 9 8 6 4
9 9 9 10 10 10 10 9 7 7 7 7 7 8 8 8 7 7 7 6 6 6 7 7 7 8 8 8 8 8 7 7 6 6 6 6 6 6 6 7 7 7 6 7 7 7 7 6 5
10 10 11 12 13 14 13 12 11 12 11 11 10 11 11 11 11 11 10 10 9 8 8 8 8 9 10 10 11 11 10 10 9 8 8 8 7 7 7 7 7 7 6 6 5 5 5 5 5
12 12 13 15 17 18 17 17 17 17 16 16 15 15 15 15 15 15 15 14 14 13 12 11 11 11 11 12 12 13 13 12 11 11 10 10 9 9 9 9 9 8 7 6 5 5 5 4 4
14 14 15 17 19 21 21 21 22 22 22 22 21 20 19 18 18 19 19 19 18 17 17 15 14 13 13 14 14 14 14 14 13 13 12 12 11 12 12 12 11 10 10 9 7 6 6 5 4
17 18 19 20 22 24 25 25 26 27 27 27 26 24 23 21 21 21 21 22 22 21 20 19 19 18 17 16 16 16 16 16 15 15 15 14 14 14 14 14 13 12 12 11 10 9 8 8 7
20 21 22 23 25 26 27 28 29 29 29 29 28 27 26 25 24 23 23 24 24 24 23 22 22 22 21 20 19 19 19 19 18 17 17 16 16 16 16 16 15 14 14 13 12 11 11 11 10
23 24 25 26 28 29 30 31 32 32 32 31 30 30 29 29 28 28 27 27 27 27 27 26 26 25 24 24 23 23 22 22 21 20 20 19 19 18 18 18 17 16 16 15 14 14 13 13 13
26 27 28 29 30 32 33 33 33 34 34 33 33 32 32 33 33 33 32 32 32 32 31 31 30 29 28 27 26 26 26 26 24 23 23 22 21 21 21 20 19 18 18 17 17 16 16 16 16
27 29 30 31 32 33 34 35 35 35 34 35 35 35 36 36 36 36 37 36 36 36 36 35 34 33 32 30 28 28 28 29 28 26 26 25 24 24 24 23 22 21 20 20 19 18 18 18 18
28 29 30 30 30 31 32 33 33 34 34 35 36 37 39 40 41 41 40 41 41 40 39 39 38 37 37 35 33 32 31 30 29 28 28 28 27 27 27 26 25 23 23 22 22 21 20 20 20
26 27 28 28 28 29 30 31 32 33 34 35 36 37 39 41 42 44 46 46 45 44 43 44 43 42 40 39 37 36 34 32 30 30 30 29 29 28 29 29 28 26 25 25 25 24 23 22 22
24 25 26 27 27 28 29 30 31 33 34 35 37 39 41 43 45 46 48 49 49 49 49 47 46 45 44 42 41 39 38 36 34 32 31 31 32 31 30 30 29 28 27 27 27 27 26 25 24
23 24 26 27 28 29 30 31 32 33 34 36 37 39 41 42 44 46 48 48 48 48 50 49 47 46 46 45 43 42 40 38 37 36 35 34 34 34 32 29 28 29 29 29 30 29 28 27 27
23 23 24 26 28 29 29 31 31 32 34 35 36 38 39 40 41 43 43 45 46 46 47 48 47 46 44 45 44 42 41 40 38 38 37 36 36 36 34 32 31 31 31 31 31 31 30 29 28
21 21 23 24 25 26 27 28 28 29 30 31 33 34 36 37 38 38 37 38 39 41 42 43 43 44 43 43 43 41 39 39 39 39 39 38 38 36 35 34 33 33 31 30 30 31 32 31 30
20 21 22 22 23 23 24 25 25 25 25 27 28 29 30 31 31 31 31 31 32 33 35 36 37 37 37 39 40 39 39 38 37 37 37 37 37 37 35 35 34 33 32 31 31 31 32 32 32
19 20 21 21 20 20 20 21 21 22 23 23 23 23 24 24 23 23 23 24 23 24 25 27 29 30 31 33 35 36 37 36 36 35 35 35 35 34 34 33 33 33 33 32 32 31 31 32 32
19 19 20 19 18 18 17 17 18 19 20 20 20 20 21 20 19 16 15 16 16 16 18 20 23 24 25 27 29 31 31 32 32 31 32 32 32 32 32 32 32 32 33 34 34 34 33 33 33
17 17 17 16 16 15 15 16 16 18 19 19 18 18 17 17 16 13 11 11 11 11 12 13 15 18 20 22 24 26 27 27 28 28 29 29 30 31 32 32 33 34 35 35 35 35 34 33 32
17 17 16 15 15 14 14 15 16 16 17 17 18 17 16 16 15 13 10 10 8 8 7 7 9 12 14 16 18 20 22 23 24 25 26 27 28 30 31 32 33 34 34 34 34 35 34 34 35
17 16 15 14 14 14 15 15 16 16 17 18 18 17 17 17 15 13 11 10 8 6 5 5 5 6 9 11 13 15 16 18 19 21 23 25 26 27 29 30 31 31 31 31 32 32 32 33 33
17 16 16 15 15 15 15 16 17 18 18 19 19 19 18 18 18 16 14 13 12 10 8 7 6 4 3 3 5 6 8 11 13 15 16 18 20 22 24 26 26 27 28 29 29 29 30 29 28
Wind_Direction
32 28 31 38 41 36 29 29 32 41 48 54 59 59 56 56 65 82 103 110 109 110 110 105 95 88 82 77 73 70 67 66 65 64 62 61 61 62 62 61 59 59 63 73 85 98 169 226 241
34 33 34 34 32 25 27 26 33 40 41 39 43 46 45 46 51 64 97 115 116 118 122 120 107 93 82 76 71 67 65 63 62 61 60 58 56 56 56 55 53 51 50 50 55 61 71 253 248
34 38 37 34 33 20 21 26 33 37 38 35 34 35 38 40 40 48 76 113 128 130 139 143 133 110 87 74 68 62 59 58 58 57 56 54 53 51 51 49 47 46 44 41 41 44 37 298 274
22 28 32 31 27 22 21 23 33 37 35 30 25 26 29 31 31 33 40 103 139 146 161 169 166 152 110 78 66 58 53 51 51 52 51 50 49 47 46 45 44 43 42 39 35 33 22 335 287
338 1 27 32 24 20 22 27 34 36 33 25 17 21 24 23 22 17 2 324 219 191 195 194 190 190 176 129 69 53 46 43 43 44 44 43 43 42 41 41 40 39 40 39 36 33 27 2 311
312 329 2 21 17 12 23 36 44 37 30 19 8 10 18 20 15 5 344 311 264 235 225 218 207 203 203 200 181 26 25 26 27 28 30 30 31 32 33 32 34 36 37 38 38 36 34 24 0
306 315 326 340 344 343 339 359 29 15 6 360 352 347 353 3 5 352 333 306 273 251 238 228 222 220 218 217 227 258 299 330 344 353 2 7 10 13 18 20 22 27 32 35 38 39 37 34 33
298 304 311 317 319 320 314 311 308 300 298 305 312 316 320 323 331 326 315 300 279 261 249 239 231 229 230 230 233 240 253 272 290 305 318 331 340 347 355 2 6 12 19 25 30 36 37 38 42
288 294 301 305 304 306 301 290 287 279 279 281 286 294 299 301 302 300 295 287 277 266 256 250 244 240 238 238 239 242 248 257 266 278 289 299 309 319 329 338 345 351 359 8 16 25 31 34 40
276 281 284 286 288 292 289 280 272 275 278 281 284 287 291 291 289 288 286 282 276 269 261 255 252 249 247 244 243 243 246 250 256 263 273 283 290 298 306 314 320 327 331 339 349 2 14 20 27
268 270 271 273 275 278 276 274 274 279 281 283 285 284 284 285 285 284 281 278 275 269 265 261 258 255 253 251 248 246 245 247 252 257 264 272 279 285 291 295 300 304 308 309 315 324 332 347 0
268 268 269 271 272 275 277 276 277 279 283 285 284 282 280 280 281 280 279 277 275 272 268 264 260 258 255 254 252 251 249 249 252 256 260 266 273 280 284 287 289 290 291 291 292 294 300 307 313
274 275 275 274 274 275 277 277 278 279 282 283 283 281 279 277 274 273 273 274 273 270 268 265 260 255 252 252 252 251 250 249 251 254 258 262 268 275 279 282 283 283 283 283 281 279 280 285 288
279 279 279 278 277 276 276 276 276 277 278 279 278 278 276 274 271 268 266 266 265 264 262 261 260 256 251 248 248 249 249 249 250 251 255 259 264 269 273 276 277 279 279 279 277 275 272 272 273
279 280 279 278 278 277 275 274 275 276 275 275 274 273 272 270 267 265 262 260 259 258 255 254 253 251 250 248 245 244 246 247 248 249 252 256 260 264 268 271 272 274 276 276 274 273 271 267 266
278 279 279 279 278 278 278 277 276 276 276 274 272 271 269 267 266 264 261 260 258 256 253 252 249 247 246 246 245 244 244 244 244 247 250 253 257 261 265 268 269 272 273 273 272 270 268 266 263
280 280 280 280 280 280 279 280 280 279 278 276 274 271 267 266 265 263 261 258 257 255 253 252 249 247 246 246 245 245 245 246 245 245 248 252 256 259 263 265 267 270 271 271 271 268 266 264 262
284 285 285 285 284 283 282 283 283 283 281 279 277 274 271 269 267 265 263 260 257 257 255 252 250 250 248 247 247 247 249 249 247 246 249 252 255 259 261 263 263 267 268 268 268 267 265 263 261
289 289 288 287 286 285 284 284 284 284 283 281 279 277 274 272 271 269 266 264 262 260 258 254 251 250 249 249 249 250 250 252 253 252 252 255 256 260 264 264 263 265 266 267 267 266 264 262 260
291 291 290 289 289 288 287 286 286 285 283 282 281 279 278 275 273 271 269 266 264 262 259 257 253 251 249 249 250 251 252 254 254 254 256 258 259 260 263 264 264 264 267 268 265 264 263 262 260
295 296 295 293 292 290 290 288 288 286 285 284 282 281 280 279 275 273 270 269 266 262 260 257 255 252 250 248 249 251 252 254 256 257 258 260 262 263 263 266 268 265 265 265 261 258 259 259 258
304 303 300 297 295 294 292 291 290 290 289 288 288 287 285 284 280 278 274 270 267 264 261 258 257 255 253 251 250 251 253 255 257 257 258 259 261 263 265 267 268 266 266 267 261 255 254 255 256
309 308 306 304 300 298 297 294 295 295 293 293 293 291 289 287 284 281 278 276 272 267 263 260 259 257 256 254 252 252 253 255 256 257 259 260 261 261 263 264 266 267 267 266 262 258 255 254 253
311 310 309 308 306 303 303 301 302 300 298 298 299 299 297 293 289 284 282 281 278 272 265 262 259 259 257 256 255 254 255 256 256 256 256 257 258 259 262 263 264 265 265 266 264 262 257 255 253
317 316 316 316 316 314 312 310 310 310 311 311 311 313 311 308 302 293 286 286 286 278 266 260 257 257 256 255 255 255 255 256 256 256 256 257 257 259 259 261 263 266 264 263 263 261 259 256 255
323 322 323 323 324 324 323 321 321 321 324 325 325 326 327 323 316 309 300 295 292 285 273 265 257 254 254 254 254 253 254 256 257 257 256 256 256 257 258 260 263 263 264 267 266 263 265 261 258
334 333 331 332 334 336 339 338 336 336 338 339 339 339 340 342 337 330 325 318 310 302 289 273 260 254 253 252 253 253 255 258 259 259 258 257 257 257 258 261 263 264 265 267 265 262 263 262 260
344 344 345 346 347 351 352 352 353 353 353 354 355 355 355 356 354 352 350 344 332 326 314 292 271 258 255 256 256 258 259 260 260 258 257 258 258 259 260 262 263 263 265 265 263 262 262 259 259
355 354 358 0 3 6 8 8 9 10 10 10 11 13 13 11 9 11 7 9 16 17 15 349 317 283 272 266 264 263 261 261 262 261 259 259 259 261 262 263 263 263 263 262 261 261 259 258 255
8 10 10 13 16 19 22 22 23 24 25 25 25 26 27 26 26 30 34 37 38 41 45 37 33 24 359 317 293 276 269 266 266 265 264 263 263 264 264 264 263 261 260 259 257 256 254 253 252
Height
5913 5913 5914 5915 5915 5914 5913 5913 5912 5912 5912 5912 5911 5911 5912 5912 5913 5915 5913 5912 5912 5912 5913 5913 5913 5913 5913 5912 5911 5911 5910 5909 5908 5908 5907 5906 5906 5906 5906 5905 5905 5904 5904 5904 5904 5905 5905 5906 5906
5914 5914 5915 5916 5915 5915 5915 5914 5914 5913 5913 5913 5912 5913 5913 5913 5913 5913 5912 5912 5913 5913 5914 5914 5914 5914 5914 5913 5913 5912 5912 5911 5910 5910 5909 5908 5908 5907 5907 5906 5906 5905 5905 5905 5905 5905 5905 5906 5906
5915 5915 5916 5916 5915 5916 5916 5915 5915 5914 5914 5914 5914 5914 5914 5914 5913 5913 5913 5913 5913 5913 5914 5915 5915 5915 5915 5914 5914 5914 5913 5913 5912 5912 5911 5910 5909 5909 5908 5908 5907 5906 5906 5905 5905 5905 5905 5906 5906
5916 5916 5917 5916 5916 5917 5917 5916 5916 5916 5915 5915 5915 5915 5914 5914 5914 5914 5914 5914 5914 5914 5914 5915 5915 5915 5915 5915 5915 5915 5914 5914 5914 5913 5912 5912 5911 5910 5910 5909 5908 5907 5907 5906 5906 5906 5905 5905 5905
5916 5917 5917 5916 5917 5917 5917 5917 5917 5917 5916 5916 5915 5915 5915 5915 5914 5914 5914 5914 5914 5914 5915 5915 5915 5915 5915 5915 5915 5915 5915 5915 5914 5914 5914 5913 5912 5912 5911 5910 5909 5909 5908 5907 5906 5906 5906 5905 5905
5917 5917 5917 5917 5917 5918 5918 5918 5917 5917 5916 5916 5916 5915 5915 5915 5914 5914 5914 5914 5914 5914 5914 5915 5915 5915 5915 5915 5915 5915 5915 5915 5915 5914 5914 5914 5913 5913 5912 5911 5911 5910 5909 5908 5907 5906 5906 5905 5905
5918 5917 5917 5917 5917 5918 5918 5918 5918 5917 5917 5916 5915 5915 5915 5915 5914 5914 5914 5913 5913 5913 5913 5914 5914 5914 5914 5914 5914 5915 5914 5914 5914 5914 5914 5914 5913 5913 5912 5912 5911 5911 5910 5909 5908 5907 5906 5906 5905
5917 5917 5916 5917 5917 5918 5918 5917 5917 5917 5916 5916 5915 5914 5914 5914 5914 5914 5913 5913 5912 5912 5912 5912 5912 5912 5913 5913 5913 5913 5913 5913 5913 5913 5913 5913 5913 5912 5912 5912 5911 5911 5910 5909 5909 5908 5907 5906 5906
5916 5917 5915 5915 5916 5916 5916 5916 5915 5915 5915 5915 5914 5913 5913 5913 5913 5913 5912 5912 5911 5911 5910 5910 5910 5910 5911 5911 5911 5911 5911 5912 5912 5912 5911 5911 5911 5911 5911 5911 5910 5910 5910 5909 5909 5908 5908 5907 5906
5915 5915 5914 5914 5914 5913 5913 5913 5913 5913 5913 5913 5913 5912 5911 5910 5910 5910 5910 5910 5909 5909 5908 5908 5908 5908 5908 5908 5908 5909 5909 5909 5909 5909 5909 5909 5909 5909 5909 5909 5909 5909 5909 5909 5908 5908 5908 5907 5907
5912 5912 5912 5912 5911 5911 5910 5910 5910 5910 5910 5911 5910 5910 5909 5908 5908 5908 5907 5907 5907 5906 5906 5905 5905 5905 5905 5905 5905 5905 5906 5906 5906 5907 5907 5907 5907 5907 5907 5907 5907 5907 5907 5907 5907 5907 5907 5907 5907
5910 5910 5910 5909 5909 5908 5907 5907 5907 5907 5907 5907 5907 5907 5907 5906 5905 5904 5904 5903 5903 5902 5902 5902 5902 5902 5902 5902 5902 5902 5902 5903 5903 5903 5904 5904 5904 5904 5904 5905 5905 5905 5905 5905 5905 5905 5905 5906 5906
5908 5907 5907 5907 5906 5905 5904 5904 5904 5903 5903 5902 5902 5902 5902 5902 5902 5901 5900 5899 5899 5898 5897 5897 5897 5897 5898 5898 5898 5899 5899 5899 5899 5900 5900 5901 5901 5901 5901 5901 5901 5902 5902 5902 5902 5903 5903 5904 5904
5905 5904 5903 5903 5902 5901 5900 5899 5899 5898 5897 5897 5897 5896 5896 5896 5896 5896 5895 5894 5894 5893 5892 5892 5891 5891 5892 5893 5893 5894 5894 5894 5895 5895 5895 5896 5897 5897 5898 5898 5898 5898 5899 5899 5899 5900 5900 5901 5901
5901 5900 5899 5898 5896 5895 5895 5894 5892 5891 5891 5891 5890 5890 5889 5889 5889 5889 5889 5888 5888 5887 5886 5886 5885 5885 5886 5886 5887 5887 5888 5889 5889 5890 5890 5891 5892 5892 5893 5893 5894 5894 5895 5895 5895 5896 5897 5897 5898
5896 5895 5894 5893 5890 5889 5889 5887 5885 5884 5884 5883 5883 5882 5882 5881 5881 5881 5881 5881 5880 5880 5880 5879 5879 5879 5879 5879 5879 5880 5881 5881 5883 5884 5885 5885 5886 5887 5888 5888 5889 5890 5890 5891 5891 5892 5893 5893 5894
5891 5890 5888 5887 5885 5883 5882 5879 5878 5877 5877 5875 5874 5874 5873 5872 5871 5871 5871 5871 5871 5871 5871 5871 5872 5872 5872 5872 5873 5873 5873 5874 5875 5877 5878 5879 5880 5881 5882 5882 5883 5884 5885 5886 5887 5888 5889 5889 5890
5887 5884 5882 5881 5879 5877 5875 5873 5871 5870 5869 5867 5866 5864 5863 5862 5861 5861 5860 5860 5860 5861 5861 5862 5863 5864 5864 5865 5866 5866 5867 5867 5868 5870 5871 5873 5874 5874 5875 5876 5877 5878 5880 5881 5882 5882 5884 5885 5885
5881 5879 5876 5874 5872 5870 5868 5866 5864 5862 5860 5858 5856 5854 5853 5851 5850 5849 5849 5849 5849 5849 5850 5851 5852 5854 5855 5857 5858 5859 5860 5861 5862 5863 5864 5865 5867 5868 5868 5870 5871 5872 5873 5875 5876 5877 5878 5879 5880
5876 5874 5871 5868 5866 5864 5861 5859 5857 5854 5852 5849 5847 5844 5842 5840 5838 5837 5836 5835 5835 5836 5837 5838 5839 5842 5844 5847 5849 5850 5852 5854 5855 5856 5857 5858 5859 5861 5862 5863 5864 5866 5867 5868 5869 5870 5871 5873 5874
5871 5869 5865 5862 5859 5856 5854 5852 5849 5846 5843 5840 5837 5834 5831 5829 5827 5825 5822 5821 5820 5821 5823 5825 5827 5829 5832 5835 5838 5840 5843 5845 5847 5849 5850 5851 5852 5854 5855 5857 5857 5858 5859 5860 5862 5863 5865 5866 5867
5865 5863 5859 5855 5852 5849 5848 5844 5841 5838 5834 5831 5827 5824 5820 5817 5814 5812 5809 5808 5807 5807 5809 5811 5814 5817 5820 5823 5827 5830 5833 5836 5838 5840 5842 5844 5845 5847 5848 5849 5850 5851 5852 5853 5854 5856 5857 5858 5860
5861 5857 5854 5850 5846 5843 5840 5837 5835 5831 5827 5823 5819 5815 5810 5806 5803 5800 5798 5797 5795 5795 5796 5799 5802 5805 5809 5812 5816 5820 5823 5827 5829 5831 5833 5835 5837 5839 5840 5842 5843 5844 5845 5846 5847 5848 5849 5851 5852
5857 5854 5850 5846 5842 5838 5835 5832 5829 5824 5820 5817 5812 5807 5802 5798 5794 5791 5789 5787 5785 5784 5785 5788 5791 5795 5798 5802 5806 5810 5813 5817 5820 5822 5824 5826 5828 5830 5832 5834 5835 5836 5837 5838 5839 5840 5841 5843 5844
5854 5850 5846 5842 5837 5834 5831 5827 5824 5819 5815 5810 5806 5801 5796 5791 5786 5783 5781 5779 5778 5776 5777 5779 5782 5785 5789 5793 5796 5800 5804 5808 5811 5813 5815 5818 5820 5821 5823 5825 5826 5827 5829 5830 5831 5832 5833 5834 5835
5850 5847 5843 5839 5834 5831 5827 5823 5820 5815 5811 5806 5801 5797 5792 5787 5782 5779 5776 5775 5773 5772 5772 5773 5775 5778 5781 5785 5789 5792 5796 5799 5802 5804 5807 5809 5811 5813 5815 5816 5818 5819 5820 5821 5821 5822 5824 5825 5827
5848 5844 5840 5836 5832 5829 5825 5821 5817 5813 5808 5804 5799 5795 5790 5785 5781 5777 5774 5773 5771 5770 5769 5770 5771 5773 5776 5779 5782 5785 5788 5791 5794 5796 5798 5801 5803 5804 5806 5808 5809 5810 5811 5811 5812 5813 5815 5816 5818
5847 5842 5839 5835 5831 5827 5824 5820 5817 5812 5808 5803 5799 5794 5790 5785 5781 5777 5774 5772 5770 5769 5768 5768 5769 5771 5773 5775 5777 5779 5782 5784 5786 5788 5791 5793 5794 5796 5797 5798 5800 5801 5802 5802 5803 5805 5806 5807 5809
5846 5842 5837 5834 5831 5827 5824 5823 5817 5812 5808 5804 5799 5795 5791 5786 5782 5778 5776 5773 5771 5770 5769 5768 5769 5769 5771 5772 5773 5775 5777 5779 5780 5781 5783 5785 5786 5787 5789 5790 5790 5792 5792 5793 5794 5795 5797 5798 5800
5846 5842 5838 5835 5831 5828 5825 5825 5817 5813 5809 5805 5801 5797 5792 5788 5784 5781 5778 5775 5773 5772 5771 5770 5770 5769 5770 5771 5771 5772 5773 5774 5776 5776 5777 5778 5779 5780 5780 5781 5782 5783 5783 5784 5786 5787 5789 5790 5792